W0DXV Weather Reports


Display with metric or nautical units.
time (UTC)temp
F
wind
direction
speed
MPH
gust
MPH
rain 1hr
in
rain 24hr
in
rain mn
in
humidity
%
barometer
mb
20260502220257 60 255 0.0 0.0 0.00 0.00 0.00 44 1007.4
20260502215754 60 247 0.0 0.0 0.00 0.00 0.00 46 1007.3
20260502215251 60 257 0.0 0.0 0.00 0.00 0.00 45 1007.6
20260502214748 60 278 0.0 0.0 0.00 0.00 0.00 45 1007.6
20260502214245 60 257 1.0 1.0 0.00 0.00 0.00 42 1007.3
20260502213742 60 231 1.0 1.0 0.00 0.00 0.00 48 1007.3
20260502213240 60 255 1.0 1.0 0.00 0.00 0.00 45 1007.4
20260502212738 60 199 0.0 0.0 0.00 0.00 0.00 42 1007.3
20260502212236 60 158 3.0 3.0 0.00 0.00 0.00 42 1007.3
20260502211732 60 235 0.0 1.0 0.00 0.00 0.00 43 1007.2
20260502211229 60 233 1.0 1.0 0.00 0.00 0.00 43 1007.4
20260502210726 60 95 1.0 1.0 0.00 0.00 0.00 42 1007.6
20260502210223 60 265 0.0 0.0 0.00 0.00 0.00 44 1007.3
20260502205721 61 254 0.0 1.0 0.00 0.00 0.00 42 1007.7
20260502205217 61 240 1.0 2.0 0.00 0.00 0.00 41 1007.4
20260502204714 62 211 1.0 2.0 0.00 0.00 0.00 41 1007.4
20260502204211 63 225 1.0 1.0 0.00 0.00 0.00 41 1007.4
20260502203709 63 280 0.0 0.0 0.00 0.00 0.00 39 1007.7
20260502203207 62 80 0.0 1.0 0.00 0.00 0.00 40 1007.4
20260502202700 63 259 1.0 1.0 0.00 0.00 0.00 45 1007.9
20260502202159 62 252 1.0 1.0 0.00 0.00 0.00 40 1007.6
20260502201656 61 200 1.0 1.0 0.00 0.00 0.00 40 1007.8
20260502201152 60 14 3.0 3.0 0.00 0.00 0.00 42 1007.9
20260502200648 61 59 3.0 3.0 0.00 0.00 0.00 42 1007.9
20260502200145 62 99 3.0 3.0 0.00 0.00 0.00 40 1007.9
20260502195643 61 125 1.0 1.0 0.00 0.00 0.00 41 1008.0
20260502195139 60 246 0.0 0.0 0.00 0.00 0.00 42 1008.2
20260502194636 59 241 0.0 0.0 0.00 0.00 0.00 42 1008.2
20260502194133 60 179 1.0 1.0 0.00 0.00 0.00 43 1008.2
20260502193629 60 173 1.0 1.0 0.00 0.00 0.00 42 1008.6
20260502193126 59 74 2.0 2.0 0.00 0.00 0.00 43 1008.6
20260502192622 58 25 3.0 3.0 0.00 0.00 0.00 44 1008.9
20260502192119 59 36 3.0 3.0 0.00 0.00 0.00 43 1008.8
20260502191616 60 67 2.0 2.0 0.00 0.00 0.00 42 1008.8
20260502191113 59 299 2.0 2.0 0.00 0.00 0.00 42 1008.9
20260502190611 61 237 1.0 1.0 0.00 0.00 0.00 42 1008.7
20260502190109 59 12 1.0 1.0 0.00 0.00 0.00 42 1008.9
20260502185603 61 32 3.0 6.0 0.00 0.00 0.00 44 1008.8
20260502185100 60 42 1.0 1.0 0.00 0.00 0.00 43 1009.0
20260502184555 59 124 2.0 3.0 0.00 0.00 0.00 44 1008.7
20260502184046 58 162 1.0 1.0 0.00 0.00 0.00 45 1008.8
20260502183543 58 19 3.0 3.0 0.00 0.00 0.00 47 1009.1
20260502183039 58 34 3.0 3.0 0.00 0.00 0.00 46 1009.2
20260502182534 58 119 3.0 5.0 0.00 0.00 0.00 48 1009.2
20260502182030 57 40 5.0 6.0 0.00 0.00 0.00 48 1009.1
20260502181528 57 49 5.0 6.0 0.00 0.00 0.00 47 1009.2
20260502181027 57 310 1.0 1.0 0.00 0.00 0.00 48 1009.3
20260502180524 56 60 1.0 2.0 0.00 0.00 0.00 49 1009.5
20260502170442 57 328 2.0 5.0 0.00 0.00 0.00 44 1009.9
20260502163925 56 38 1.0 1.0 0.00 0.00 0.00 49 1010.3
20260502163421 57 27 4.0 5.0 0.00 0.00 0.00 52 1010.2
20260502162920 57 27 2.0 3.0 0.00 0.00 0.00 52 1010.3
20260502162416 56 25 3.0 3.0 0.00 0.00 0.00 52 1010.3
20260502161913 57 351 4.0 6.0 0.00 0.00 0.00 51 1010.5
20260502161409 56 338 1.0 1.0 0.00 0.00 0.00 54 1010.6
20260502160907 55 7 2.0 2.0 0.00 0.00 0.00 54 1010.6
20260502160405 56 103 4.0 5.0 0.00 0.00 0.00 55 1010.4
20260502152340 54 40 0.0 1.0 0.00 0.00 0.00 63 1011.1
20260502151838 54 31 3.0 3.0 0.00 0.00 0.00 62 1011.0
20260502151334 54 50 0.0 0.0 0.00 0.00 0.00 64 1010.8
20260502150832 55 47 3.0 3.0 0.00 0.00 0.00 61 1010.9
20260502150328 55 288 1.0 1.0 0.00 0.00 0.00 63 1010.8
20260502130716 54 3 0.0 0.0 0.00 0.00 0.00 73 1010.1
20260502130214 54 47 2.0 2.0 0.00 0.00 0.00 73 1010.0
20260502123700 54 316 1.0 1.0 0.00 0.00 0.00 72 1010.0
20260502123156 54 273 0.0 1.0 0.00 0.00 0.00 71 1009.9
20260502122653 54 133 0.0 1.0 0.00 0.00 0.00 71 1009.6
20260502122149 54 32 0.0 1.0 0.00 0.00 0.00 71 1009.2
20260502121648 54 29 2.0 2.0 0.00 0.00 0.00 71 1009.2
20260502121145 54 55 1.0 2.0 0.00 0.00 0.00 71 1009.0
20260502120641 54 20 1.0 1.0 0.00 0.00 0.00 71 1009.7
20260502120138 54 58 1.0 1.0 0.00 0.00 0.00 70 1009.7
20260502115636 54 319 1.0 1.0 0.00 0.00 0.00 70 1009.8
20260502115132 54 27 0.0 0.0 0.00 0.00 0.00 70 1009.5
20260502114628 54 325 1.0 1.0 0.00 0.00 0.00 69 1009.5
20260502114126 54 47 1.0 1.0 0.00 0.00 0.00 69 1009.4
20260502113623 54 18 1.0 1.0 0.00 0.00 0.00 68 1009.6
20260502113121 54 242 1.0 1.0 0.00 0.00 0.00 69 1009.4
20260502112619 54 21 0.0 1.0 0.00 0.00 0.00 68 1009.5
20260502112116 54 47 1.0 1.0 0.00 0.00 0.00 68 1009.1
20260502111613 54 310 1.0 1.0 0.00 0.00 0.00 68 1009.1
20260502111110 54 55 3.0 3.0 0.00 0.00 0.00 68 1009.0
20260502110608 54 62 1.0 1.0 0.00 0.00 0.00 69 1009.1
20260502110106 54 352 2.0 2.0 0.00 0.00 0.00 69 1009.0
20260502105603 54 48 2.0 2.0 0.00 0.00 0.00 70 1009.0
20260502105100 54 52 3.0 5.0 0.00 0.00 0.00 71 1008.9
20260502104556 54 34 1.0 2.0 0.00 0.00 0.00 72 1009.1
20260502104054 54 92 2.0 3.0 0.00 0.00 0.00 72 1009.1
20260502103552 54 22 1.0 2.0 0.00 0.00 0.00 73 1009.0
20260502103050 54 56 2.0 2.0 0.00 0.00 0.00 73 1009.0
20260502102546 54 75 1.0 1.0 0.00 0.00 0.00 73 1008.8
20260502102043 54 25 2.0 2.0 0.00 0.00 0.00 73 1008.9
20260502101541 54 1 0.0 1.0 0.00 0.00 0.00 74 1008.9
20260502101039 54 36 3.0 3.0 0.00 0.00 0.00 74 1009.2
20260502100537 54 46 1.0 3.0 0.00 0.00 0.00 75 1008.9
20260502091512 52 84 0.0 0.0 0.00 0.00 0.00 90 1009.7
20260502091009 52 84 0.0 0.0 0.00 0.00 0.00 91 1009.8
20260502090506 52 255 0.0 0.0 0.00 0.00 0.00 93 1009.8
20260502071401 53 272 0.0 0.0 0.00 0.00 0.00 90 1008.5
20260502070859 53 272 0.0 0.0 0.00 0.00 0.00 90 1008.5
20260502070356 53 273 0.0 1.0 0.00 0.00 0.00 90 1008.3
20260502065855 53 232 0.0 0.0 0.00 0.00 0.00 90 1008.4
20260502065353 53 232 0.0 0.0 0.00 0.00 0.00 90 1008.4
20260502064850 53 232 1.0 1.0 0.00 0.00 0.00 90 1008.5
20260502064348 53 247 1.0 1.0 0.00 0.00 0.00 88 1008.6
20260502063845 53 344 0.0 1.0 0.00 0.00 0.00 88 1008.8
20260502063343 53 246 0.0 0.0 0.00 0.00 0.00 89 1008.9
20260502062840 53 290 1.0 1.0 0.00 0.00 0.00 88 1008.7
20260502062337 53 9 1.0 1.0 0.00 0.00 0.00 89 1008.8
20260502061836 52 94 1.0 1.0 0.00 0.00 0.00 90 1008.9
20260502061333 52 17 1.0 1.0 0.00 0.00 0.00 91 1009.1
20260502060829 52 1 3.0 5.0 0.00 0.00 0.00 92 1009.1
20260502060324 52 217 0.0 1.0 0.00 0.00 0.00 92 1008.4
20260502055822 52 217 0.0 0.0 0.00 0.00 0.00 92 1008.7
20260502055319 52 217 0.0 0.0 0.00 0.00 0.00 92 1008.6
20260502054814 52 217 0.0 0.0 0.00 0.00 0.00 92 1008.7
20260502054311 52 217 0.0 0.0 0.00 0.00 0.00 92 1008.7
20260502053808 52 217 0.0 0.0 0.00 0.00 0.00 92 1008.7
20260502053305 52 217 0.0 0.0 0.00 0.00 0.00 92 1008.6
20260502052803 52 217 0.0 0.0 0.00 0.00 0.00 91 1008.5
20260502052301 52 217 0.0 0.0 0.00 0.00 0.00 91 1008.8
20260502051758 52 217 0.0 0.0 0.00 0.00 0.00 91 1008.8
20260502051257 52 217 0.0 0.0 0.00 0.00 0.00 91 1008.7
20260502050753 52 216 0.0 0.0 0.00 0.00 0.00 91 1008.6
20260502050249 52 216 0.0 0.0 0.00 0.00 0.00 91 1008.7
20260502045746 52 216 0.0 0.0 0.00 0.00 0.00 91 1008.7
20260502045243 52 216 0.0 0.0 0.00 0.00 0.00 91 1008.9
20260502044740 52 216 0.0 0.0 0.00 0.00 0.00 90 1008.9
20260502044236 52 217 0.0 0.0 0.00 0.00 0.00 90 1009.0
20260502043734 52 217 0.0 0.0 0.00 0.00 0.00 90 1009.0
20260502043231 52 217 0.0 0.0 0.00 0.00 0.00 90 1008.9
20260502042730 52 217 0.0 1.0 0.00 0.00 0.00 90 1008.7
20260502042228 52 216 0.0 0.0 0.00 0.00 0.00 89 1009.1
20260502041725 52 216 0.0 0.0 0.00 0.00 0.00 89 1008.8
20260502041223 52 217 0.0 0.0 0.00 0.00 0.00 89 1008.9
20260502040720 52 216 0.0 0.0 0.00 0.00 0.00 88 1008.9
20260502040216 52 216 0.0 0.0 0.00 0.00 0.00 88 1008.8
20260502035712 52 216 0.0 0.0 0.00 0.00 0.00 88 1008.9
20260502035209 53 216 0.0 0.0 0.00 0.00 0.00 87 1009.0
20260502034707 53 216 0.0 0.0 0.00 0.00 0.00 87 1009.0
20260502034205 53 216 0.0 0.0 0.00 0.00 0.00 86 1009.2
20260502033703 53 216 0.0 0.0 0.00 0.00 0.00 86 1009.2
20260502033201 53 216 0.0 0.0 0.00 0.00 0.00 86 1009.4
20260502032656 53 216 0.0 0.0 0.00 0.00 0.00 85 1009.2
20260502032152 53 216 0.0 0.0 0.00 0.00 0.00 85 1009.3
20260502031651 53 216 0.0 0.0 0.00 0.00 0.00 85 1009.4
20260502031148 53 216 0.0 0.0 0.00 0.00 0.00 84 1009.2
20260502030647 54 216 0.0 0.0 0.00 0.00 0.00 84 1009.5
20260502030145 54 216 0.0 0.0 0.00 0.00 0.00 83 1009.6
20260502025641 54 216 0.0 0.0 0.00 0.00 0.00 83 1009.3
20260502025139 54 216 0.0 0.0 0.00 0.00 0.00 83 1009.4
20260502024637 54 216 0.0 0.0 0.00 0.00 0.00 82 1009.4
20260502024135 54 216 0.0 0.0 0.00 0.00 0.00 82 1009.3
20260502023633 54 217 1.0 1.0 0.00 0.00 0.00 81 1009.3
20260502023130 55 215 0.0 0.0 0.00 0.00 0.00 81 1009.3
20260502022626 55 216 0.0 0.0 0.00 0.00 0.00 80 1009.5
20260502022124 55 216 0.0 0.0 0.00 0.00 0.00 80 1009.5
20260502021621 55 216 0.0 0.0 0.00 0.00 0.00 80 1009.3
20260502021118 55 216 0.0 1.0 0.00 0.00 0.00 80 1009.3
20260502020616 55 216 0.0 0.0 0.00 0.00 0.00 79 1009.0
20260502020112 55 215 0.0 1.0 0.00 0.00 0.00 79 1009.2
20260502015610 56 215 0.0 0.0 0.00 0.00 0.00 78 1009.2
20260502015106 56 238 0.0 0.0 0.00 0.00 0.00 78 1009.0
20260502014603 56 217 0.0 0.0 0.00 0.00 0.00 77 1009.2
20260502014100 56 215 0.0 0.0 0.00 0.00 0.00 76 1009.4
20260502013555 56 241 0.0 0.0 0.00 0.00 0.00 76 1009.4
20260502013052 57 243 0.0 0.0 0.00 0.00 0.00 77 1009.3
20260502012550 57 247 0.0 0.0 0.00 0.00 0.00 77 1009.4
20260502012047 57 201 0.0 0.0 0.00 0.00 0.00 76 1009.4
20260502011544 57 229 0.0 0.0 0.00 0.00 0.00 75 1009.3
20260502011040 57 231 0.0 1.0 0.00 0.00 0.00 75 1009.3
20260502010538 57 232 0.0 1.0 0.00 0.00 0.00 75 1009.2
20260502010033 58 253 1.0 1.0 0.00 0.00 0.00 75 1009.0
20260502005532 58 229 0.0 0.0 0.00 0.00 0.00 75 1009.0
20260502005029 58 229 0.0 1.0 0.00 0.00 0.00 74 1009.0
20260502004525 58 231 0.0 0.0 0.00 0.00 0.00 75 1008.8
20260502004022 59 229 0.0 0.0 0.00 0.00 0.00 74 1008.5
20260502003520 59 230 0.0 0.0 0.00 0.00 0.00 74 1008.7
20260502003016 59 230 0.0 0.0 0.00 0.00 0.00 74 1008.2
20260502002513 59 230 0.0 1.0 0.00 0.00 0.00 73 1008.3
20260502002010 59 229 0.0 0.0 0.00 0.00 0.00 73 1008.2
20260502001508 60 230 1.0 1.0 0.00 0.00 0.00 72 1008.1
20260502001005 60 217 0.0 0.0 0.00 0.00 0.00 71 1008.2
20260502000503 60 217 0.0 1.0 0.00 0.00 0.00 72 1008.0
20260501235959 60 217 0.0 0.0 0.00 0.00 0.00 69 1007.9
20260501235455 61 236 1.0 1.0 0.00 0.00 0.00 70 1007.8
20260501234950 61 234 1.0 1.0 0.00 0.00 0.00 68 1007.8
20260501234447 61 236 1.0 1.0 0.00 0.00 0.00 69 1007.6
20260501233946 62 231 0.0 1.0 0.00 0.00 0.00 67 1007.4
20260501233443 62 229 0.0 1.0 0.00 0.00 0.00 67 1007.8
20260501232939 62 237 0.0 1.0 0.00 0.00 0.00 67 1007.8
20260501232436 62 238 1.0 2.0 0.00 0.00 0.00 65 1007.8
20260501231933 62 229 0.0 0.0 0.00 0.00 0.00 65 1007.7
20260501231432 63 230 2.0 2.0 0.00 0.00 0.00 63 1008.0
20260501230929 63 183 0.0 0.0 0.00 0.00 0.00 63 1007.8
20260501230428 63 194 0.0 1.0 0.00 0.00 0.00 62 1008.0
20260501225925 63 220 1.0 1.0 0.00 0.00 0.00 62 1007.9
20260501225423 63 140 2.0 2.0 0.00 0.00 0.00 60 1007.8
20260501224918 63 241 1.0 1.0 0.00 0.00 0.00 60 1008.0
20260501224416 63 236 0.0 0.0 0.00 0.00 0.00 61 1007.8
20260501223912 63 236 1.0 1.0 0.00 0.00 0.00 58 1007.8
20260501223409 64 166 1.0 2.0 0.00 0.00 0.00 57 1007.7
20260501222904 64 230 2.0 2.0 0.00 0.00 0.00 56 1007.8
20260501222402 64 228 0.0 0.0 0.00 0.00 0.00 58 1007.8
20260501221858 64 243 1.0 1.0 0.00 0.00 0.00 57 1008.0
20260501221355 64 233 1.0 1.0 0.00 0.00 0.00 55 1007.9
20260501220854 64 279 1.0 1.0 0.00 0.00 0.00 56 1007.9